Location: Newark
(41.0400°S, 62.7845°W)
Time: 08:08:46
(UTC+00:00)

Transit 2A - Pass Details

Date: 04 December 2021
Orbit: 591 x 967 km, 66.7° (Epoch: 19 January)

Event Time Altitude Azimuth Distance (km) Brightness Sun altitude
Rises 23:17:02 0° 194° (SSW) 2,868 9.7 1.4°
Reaches altitude 10° 23:20:39 10° 162° (SSE) 1,962 8.3 0.8°
Maximum altitude 23:22:27 12° 138° (SE) 1,823 7.9 0.5°
Drops below altitude 10° 23:24:16 10° 113° (ESE) 1,980 7.8 0.2°
Sets 23:27:58 0° 82° (E) 2,927 8.4 -0.4°
